QPF
0.03 0.03 0.03 0.03 0.04 0.05 0.08 0.09 0.09 0.08 0.06 0.05 0.06 0.06 0.07 0.07 0.06 0.06 0.06 0.06 0.04 0.03 0.02 0.01 0.01 0.02 0.02 0.01 0.01 0.01 0.01 0.00 0.00 0.00 0.00 0.00 0.00 0.01
0.02 0.01 0.01 0.02 0.02 0.04 0.07 0.12 0.14 0.12 0.08 0.04 0.04 0.04 0.04 0.04 0.05 0.04 0.04 0.05 0.06 0.05 0.03 0.02 0.01 0.02 0.01 0.01 0.01 0.00 0.01 0.01 0.00 0.00 0.00 0.01 0.01 0.01
0.02 0.02 0.01 0.03 0.03 0.04 0.07 0.08 0.09 0.08 0.06 0.03 0.03 0.03 0.04 0.04 0.05 0.04 0.04 0.03 0.04 0.05 0.06 0.05 0.03 0.02 0.02 0.02 0.01 0.01 0.01 0.01 0.01 0.01 0.01 0.01 0.02 0.01
0.01 0.02 0.02 0.03 0.05 0.06 0.07 0.06 0.04 0.04 0.05 0.04 0.02 0.02 0.03 0.04 0.04 0.05 0.04 0.03 0.04 0.05 0.06 0.07 0.07 0.05 0.03 0.02 0.02 0.02 0.02 0.02 0.02 0.02 0.02 0.02 0.02 0.03
0.01 0.02 0.02 0.04 0.06 0.05 0.04 0.04 0.04 0.04 0.05 0.04 0.03 0.02 0.03 0.02 0.02 0.03 0.02 0.02 0.03 0.05 0.06 0.06 0.08 0.09 0.08 0.06 0.03 0.03 0.02 0.02 0.02 0.01 0.02 0.02 0.03 0.04
0.01 0.02 0.02 0.03 0.03 0.02 0.03 0.02 0.04 0.05 0.05 0.04 0.03 0.03 0.03 0.03 0.04 0.04 0.02 0.02 0.02 0.03 0.04 0.05 0.05 0.06 0.09 0.09 0.06 0.03 0.02 0.02 0.02 0.01 0.02 0.01 0.01 0.02
0.02 0.02 0.02 0.01 0.02 0.02 0.02 0.02 0.03 0.04 0.05 0.04 0.03 0.03 0.03 0.03 0.04 0.04 0.04 0.05 0.05 0.03 0.03 0.04 0.04 0.04 0.05 0.05 0.05 0.04 0.03 0.02 0.01 0.01 0.01 0.02 0.02 0.01
0.02 0.02 0.02 0.01 0.02 0.02 0.03 0.03 0.04 0.04 0.04 0.04 0.04 0.04 0.03 0.03 0.04 0.04 0.05 0.05 0.05 0.03 0.02 0.02 0.02 0.03 0.03 0.04 0.05 0.05 0.04 0.04 0.03 0.02 0.02 0.02 0.02 0.02
0.03 0.04 0.03 0.02 0.02 0.02 0.02 0.02 0.03 0.04 0.04 0.05 0.05 0.05 0.04 0.05 0.06 0.05 0.04 0.04 0.03 0.02 0.02 0.02 0.01 0.01 0.02 0.02 0.02 0.02 0.02 0.03 0.04 0.04 0.04 0.04 0.04 0.03
0.03 0.04 0.04 0.03 0.02 0.02 0.01 0.01 0.02 0.03 0.04 0.05 0.06 0.07 0.07 0.07 0.06 0.04 0.04 0.03 0.03 0.02 0.02 0.02 0.02 0.02 0.02 0.01 0.02 0.01 0.02 0.02 0.02 0.03 0.04 0.04 0.04 0.03
0.04 0.05 0.05 0.04 0.03 0.02 0.02 0.02 0.02 0.02 0.02 0.03 0.03 0.05 0.05 0.05 0.04 0.03 0.03 0.03 0.03 0.03 0.02 0.02 0.01 0.02 0.02 0.02 0.02 0.02 0.02 0.02 0.02 0.03 0.03 0.02 0.02 0.02
0.04 0.04 0.05 0.04 0.03 0.02 0.02 0.01 0.01 0.01 0.01 0.01 0.01 0.02 0.02 0.03 0.05 0.04 0.04 0.04 0.03 0.03 0.01 0.02 0.01 0.02 0.02 0.02 0.02 0.02 0.02 0.02 0.02 0.02 0.02 0.02 0.02 0.02
0.02 0.02 0.03 0.03 0.03 0.02 0.02 0.01 0.01 0.01 0.01 0.02 0.02 0.02 0.02 0.02 0.03 0.04 0.04 0.04 0.04 0.02 0.02 0.02 0.03 0.03 0.03 0.02 0.01 0.01 0.01 0.01 0.01 0.01 0.02 0.02 0.01 0.01
0.02 0.02 0.02 0.03 0.03 0.02 0.02 0.02 0.02 0.03 0.02 0.02 0.02 0.01 0.01 0.01 0.02 0.03 0.03 0.04 0.05 0.04 0.05 0.05 0.04 0.04 0.04 0.03 0.02 0.03 0.03 0.02 0.01 0.01 0.01 0.02 0.01 0.01
0.06 0.04 0.03 0.03 0.03 0.03 0.03 0.04 0.04 0.04 0.03 0.03 0.02 0.02 0.02 0.01 0.02 0.02 0.02 0.02 0.04 0.06 0.05 0.05 0.05 0.06 0.05 0.05 0.05 0.04 0.03 0.02 0.01 0.01 0.02 0.02 0.02 0.01
0.06 0.07 0.07 0.05 0.05 0.05 0.04 0.04 0.05 0.06 0.04 0.04 0.03 0.02 0.02 0.02 0.02 0.02 0.02 0.03 0.03 0.03 0.04 0.05 0.05 0.04 0.04 0.03 0.02 0.01 0.01 0.01 0.02 0.02 0.02 0.02 0.01 0.01
0.04 0.05 0.06 0.06 0.05 0.06 0.04 0.03 0.03 0.04 0.03 0.03 0.03 0.02 0.02 0.01 0.02 0.03 0.03 0.04 0.03 0.03 0.03 0.04 0.05 0.04 0.03 0.03 0.02 0.01 0.01 0.01 0.01 0.02 0.02 0.01 0.01 0.01
0.04 0.03 0.03 0.03 0.03 0.03 0.03 0.03 0.03 0.02 0.01 0.02 0.02 0.02 0.02 0.01 0.01 0.01 0.02 0.02 0.02 0.02 0.03 0.03 0.03 0.04 0.04 0.03 0.03 0.02 0.02 0.01 0.02 0.02 0.02 0.01 0.02 0.02
0.03 0.02 0.02 0.02 0.01 0.02 0.02 0.02 0.02 0.02 0.02 0.02 0.01 0.01 0.01 0.01 0.01 0.01 0.01 0.01 0.01 0.02 0.03 0.03 0.03 0.03 0.02 0.02 0.01 0.02 0.02 0.02 0.02 0.03 0.02 0.03 0.02 0.02
0.03 0.02 0.02 0.02 0.02 0.02 0.03 0.03 0.03 0.03 0.03 0.03 0.02 0.02 0.01 0.01 0.02 0.01 0.01 0.01 0.01 0.02 0.04 0.04 0.04 0.05 0.04 0.04 0.04 0.04 0.04 0.04 0.03 0.02 0.02 0.03 0.02 0.01
0.02 0.02 0.02 0.01 0.01 0.01 0.02 0.03 0.03 0.04 0.04 0.03 0.04 0.03 0.03 0.03 0.02 0.01 0.02 0.02 0.01 0.02 0.02 0.02 0.02 0.03 0.04 0.04 0.03 0.02 0.02 0.03 0.03 0.03 0.03 0.03 0.02 0.01
0.03 0.02 0.02 0.01 0.01 0.01 0.01 0.02 0.02 0.03 0.04 0.03 0.03 0.04 0.04 0.04 0.03 0.02 0.02 0.01 0.01 0.01 0.01 0.01 0.01 0.02 0.03 0.03 0.02 0.02 0.02 0.03 0.04 0.04 0.04 0.03 0.03 0.02
0.03 0.03 0.03 0.02 0.02 0.01 0.01 0.02 0.02 0.02 0.02 0.02 0.02 0.03 0.04 0.05 0.05 0.04 0.04 0.03 0.02 0.02 0.02 0.02 0.02 0.02 0.03 0.03 0.03 0.03 0.03 0.03 0.03 0.03 0.03 0.02 0.02 0.02
MSLP
1008.30 1008.25 1008.38 1008.66 1009.07 1009.56 1010.08 1010.60 1011.10 1011.55 1011.95 1012.30 1012.61 1012.88 1013.13 1013.36 1013.59 1013.83 1014.09 1014.37 1014.68 1015.01 1015.36 1015.69 1016.01 1016.29 1016.51 1016.69 1016.81 1016.91 1016.99 1017.09 1017.22 1017.39 1017.61 1017.89 1018.21 1018.54
1008.27 1008.09 1008.09 1008.26 1008.58 1009.01 1009.51 1010.05 1010.60 1011.13 1011.61 1012.05 1012.42 1012.73 1013.00 1013.23 1013.44 1013.66 1013.89 1014.14 1014.43 1014.76 1015.09 1015.43 1015.75 1016.03 1016.26 1016.44 1016.57 1016.67 1016.76 1016.87 1017.01 1017.20 1017.45 1017.75 1018.09 1018.44
1008.31 1008.03 1007.91 1007.95 1008.15 1008.50 1008.95 1009.48 1010.05 1010.63 1011.19 1011.70 1012.14 1012.52 1012.83 1013.09 1013.32 1013.53 1013.76 1014.01 1014.30 1014.62 1014.96 1015.30 1015.63 1015.91 1016.15 1016.33 1016.47 1016.58 1016.68 1016.80 1016.97 1017.18 1017.45 1017.76 1018.11 1018.46
1008.39 1008.02 1007.79 1007.71 1007.79 1008.03 1008.41 1008.91 1009.48 1010.09 1010.70 1011.28 1011.80 1012.25 1012.63 1012.94 1013.20 1013.44 1013.69 1013.95 1014.25 1014.58 1014.93 1015.29 1015.62 1015.91 1016.15 1016.34 1016.48 1016.60 1016.72 1016.85 1017.03 1017.26 1017.54 1017.87 1018.22 1018.56
1008.42 1008.00 1007.67 1007.49 1007.46 1007.60 1007.91 1008.35 1008.90 1009.53 1010.17 1010.81 1011.40 1011.92 1012.36 1012.73 1013.05 1013.34 1013.62 1013.92 1014.25 1014.60 1014.96 1015.33 1015.67 1015.97 1016.21 1016.40 1016.55 1016.67 1016.80 1016.94 1017.14 1017.38 1017.67 1018.01 1018.35 1018.68
1008.36 1007.90 1007.52 1007.25 1007.13 1007.18 1007.41 1007.80 1008.32 1008.94 1009.61 1010.29 1010.93 1011.51 1012.01 1012.45 1012.83 1013.17 1013.50 1013.84 1014.20 1014.57 1014.96 1015.34 1015.69 1016.00 1016.25 1016.44 1016.59 1016.72 1016.85 1017.01 1017.21 1017.47 1017.77 1018.11 1018.45 1018.77
1008.17 1007.69 1007.27 1006.94 1006.76 1006.75 1006.91 1007.25 1007.74 1008.35 1009.03 1009.72 1010.40 1011.03 1011.59 1012.08 1012.51 1012.90 1013.27 1013.65 1014.04 1014.44 1014.85 1015.24 1015.60 1015.91 1016.17 1016.37 1016.53 1016.67 1016.81 1016.98 1017.20 1017.48 1017.79 1018.14 1018.49 1018.80
1007.84 1007.36 1006.92 1006.56 1006.34 1006.28 1006.40 1006.71 1007.17 1007.76 1008.44 1009.15 1009.85 1010.50 1011.09 1011.62 1012.08 1012.51 1012.91 1013.32 1013.73 1014.15 1014.57 1014.97 1015.34 1015.66 1015.93 1016.14 1016.31 1016.47 1016.63 1016.83 1017.07 1017.37 1017.70 1018.07 1018.43 1018.75
1007.40 1006.93 1006.48 1006.12 1005.87 1005.79 1005.89 1006.17 1006.62 1007.21 1007.87 1008.58 1009.29 1009.96 1010.56 1011.10 1011.58 1012.02 1012.43 1012.84 1013.26 1013.69 1014.11 1014.52 1014.90 1015.23 1015.51 1015.74 1015.94 1016.12 1016.31 1016.54 1016.81 1017.13 1017.50 1017.89 1018.27 1018.61
1006.91 1006.44 1006.00 1005.64 1005.39 1005.31 1005.40 1005.68 1006.12 1006.70 1007.36 1008.07 1008.77 1009.43 1010.03 1010.56 1011.04 1011.46 1011.86 1012.26 1012.66 1013.08 1013.49 1013.90 1014.28 1014.63 1014.93 1015.19 1015.42 1015.64 1015.87 1016.13 1016.43 1016.79 1017.18 1017.60 1018.01 1018.38
1006.42 1005.96 1005.53 1005.17 1004.93 1004.85 1004.95 1005.23 1005.68 1006.25 1006.91 1007.61 1008.31 1008.96 1009.54 1010.05 1010.49 1010.89 1011.26 1011.62 1011.99 1012.38 1012.78 1013.17 1013.56 1013.92 1014.25 1014.54 1014.81 1015.07 1015.34 1015.64 1015.98 1016.36 1016.77 1017.21 1017.64 1018.03
1005.97 1005.52 1005.10 1004.75 1004.52 1004.45 1004.55 1004.84 1005.28 1005.85 1006.51 1007.21 1007.89 1008.52 1009.09 1009.57 1009.98 1010.33 1010.66 1010.98 1011.30 1011.65 1012.03 1012.41 1012.80 1013.18 1013.53 1013.86 1014.18 1014.48 1014.78 1015.11 1015.47 1015.86 1016.28 1016.72 1017.15 1017.56
1005.57 1005.13 1004.72 1004.38 1004.15 1004.08 1004.19 1004.47 1004.91 1005.48 1006.13 1006.82 1007.49 1008.11 1008.65 1009.10 1009.48 1009.79 1010.07 1010.34 1010.63 1010.94 1011.29 1011.66 1012.05 1012.45 1012.83 1013.20 1013.56 1013.90 1014.23 1014.58 1014.94 1015.33 1015.73 1016.15 1016.56 1016.94
1005.19 1004.77 1004.37 1004.04 1003.81 1003.74 1003.83 1004.10 1004.53 1005.09 1005.73 1006.40 1007.06 1007.66 1008.18 1008.62 1008.97 1009.25 1009.49 1009.72 1009.97 1010.25 1010.58 1010.95 1011.35 1011.76 1012.18 1012.59 1012.98 1013.36 1013.72 1014.07 1014.42 1014.78 1015.14 1015.51 1015.87 1016.22
1004.80 1004.41 1004.04 1003.71 1003.49 1003.40 1003.47 1003.71 1004.11 1004.64 1005.26 1005.91 1006.56 1007.15 1007.66 1008.08 1008.41 1008.67 1008.89 1009.09 1009.32 1009.58 1009.90 1010.27 1010.68 1011.13 1011.58 1012.03 1012.46 1012.86 1013.24 1013.59 1013.92 1014.24 1014.55 1014.85 1015.14 1015.42
1004.39 1004.05 1003.70 1003.39 1003.16 1003.06 1003.10 1003.30 1003.66 1004.15 1004.73 1005.35 1005.97 1006.55 1007.05 1007.46 1007.78 1008.03 1008.24 1008.43 1008.65 1008.91 1009.23 1009.61 1010.04 1010.52 1011.01 1011.51 1011.98 1012.41 1012.81 1013.15 1013.46 1013.74 1013.98 1014.22 1014.43 1014.64
1003.97 1003.69 1003.39 1003.10 1002.88 1002.75 1002.76 1002.92 1003.22 1003.65 1004.18 1004.76 1005.34 1005.89 1006.37 1006.77 1007.09 1007.34 1007.55 1007.74 1007.95 1008.21 1008.54 1008.94 1009.40 1009.92 1010.46 1011.00 1011.52 1011.99 1012.41 1012.76 1013.06 1013.30 1013.50 1013.67 1013.82 1013.97
1003.63 1003.42 1003.17 1002.92 1002.71 1002.57 1002.53 1002.64 1002.87 1003.24 1003.70 1004.21 1004.75 1005.26 1005.72 1006.10 1006.40 1006.64 1006.84 1007.03 1007.24 1007.50 1007.84 1008.26 1008.75 1009.30 1009.89 1010.48 1011.05 1011.57 1012.03 1012.42 1012.73 1012.96 1013.14 1013.28 1013.39 1013.48
1003.46 1003.34 1003.15 1002.94 1002.74 1002.59 1002.52 1002.56 1002.73 1003.01 1003.39 1003.84 1004.30 1004.76 1005.16 1005.51 1005.78 1006.00 1006.18 1006.35 1006.55 1006.81 1007.14 1007.57 1008.08 1008.66 1009.29 1009.94 1010.57 1011.15 1011.67 1012.11 1012.46 1012.73 1012.92 1013.06 1013.16 1013.25
1003.60 1003.55 1003.43 1003.25 1003.07 1002.90 1002.80 1002.79 1002.88 1003.08 1003.37 1003.72 1004.10 1004.48 1004.82 1005.10 1005.33 1005.49 1005.63 1005.77 1005.94 1006.17 1006.49 1006.90 1007.42 1008.02 1008.69 1009.38 1010.07 1010.73 1011.32 1011.83 1012.25 1012.58 1012.83 1013.01 1013.15 1013.26
1004.13 1004.14 1004.06 1003.92 1003.74 1003.57 1003.43 1003.36 1003.37 1003.48 1003.68 1003.93 1004.21 1004.49 1004.75 1004.95 1005.10 1005.20 1005.27 1005.35 1005.46 1005.64 1005.92 1006.31 1006.81 1007.41 1008.09 1008.82 1009.57 1010.29 1010.97 1011.57 1012.09 1012.51 1012.85 1013.11 1013.32 1013.49
1005.08 1005.11 1005.05 1004.93 1004.75 1004.55 1004.38 1004.25 1004.20 1004.22 1004.32 1004.47 1004.64 1004.82 1004.97 1005.08 1005.13 1005.15 1005.14 1005.13 1005.17 1005.28 1005.49 1005.83 1006.29 1006.88 1007.56 1008.31 1009.10 1009.89 1010.65 1011.34 1011.96 1012.49 1012.94 1013.30 1013.60 1013.85
1006.38 1006.41 1006.35 1006.21 1006.01 1005.79 1005.57 1005.39 1005.27 1005.21 1005.22 1005.27 1005.35 1005.42 1005.47 1005.48 1005.43 1005.35 1005.25 1005.15 1005.10 1005.13 1005.27 1005.54 1005.94 1006.49 1007.15 1007.90 1008.72 1009.55 1010.37 1011.16 1011.87 1012.51 1013.07 1013.54 1013.94 1014.28
Thickness
5720 5719 5717 5717 5716 5714 5712 5709 5702 5695 5695 5700 5702 5705 5704 5704 5703 5702 5700 5700 5699 5697 5696 5694 5693 5691 5690 5688 5687 5685 5684 5683 5682 5680 5679 5678 5676 5675
5717 5716 5714 5713 5712 5711 5709 5707 5704 5699 5694 5697 5699 5701 5701 5700 5699 5698 5697 5696 5695 5694 5693 5691 5690 5688 5686 5685 5684 5682 5680 5679 5678 5676 5675 5674 5672 5670
5713 5712 5710 5710 5708 5707 5705 5704 5702 5699 5694 5694 5696 5697 5696 5696 5695 5694 5693 5692 5691 5690 5689 5688 5687 5685 5683 5682 5680 5678 5677 5675 5673 5672 5671 5669 5667 5666
5709 5708 5707 5706 5704 5703 5702 5700 5699 5698 5694 5691 5691 5691 5691 5691 5691 5689 5688 5688 5687 5687 5685 5684 5683 5682 5680 5678 5676 5674 5673 5671 5669 5668 5666 5664 5662 5660
5705 5704 5703 5702 5699 5698 5698 5697 5696 5696 5693 5690 5687 5687 5686 5686 5684 5684 5683 5682 5683 5682 5681 5680 5678 5677 5675 5673 5672 5670 5668 5666 5664 5663 5661 5659 5657 5655
5702 5701 5700 5699 5697 5695 5694 5692 5691 5690 5688 5686 5683 5681 5680 5680 5678 5676 5675 5676 5676 5677 5675 5674 5673 5672 5670 5668 5667 5665 5663 5661 5659 5657 5655 5653 5651 5648
5697 5696 5696 5696 5695 5693 5691 5689 5687 5684 5682 5679 5677 5675 5673 5672 5670 5670 5669 5669 5669 5669 5668 5667 5667 5665 5664 5663 5661 5660 5658 5656 5654 5651 5649 5647 5644 5642
5691 5690 5690 5690 5689 5689 5688 5687 5685 5681 5677 5674 5672 5670 5668 5667 5666 5665 5662 5660 5659 5662 5660 5659 5660 5658 5658 5656 5655 5654 5652 5649 5647 5645 5642 5640 5638 5635
5686 5685 5685 5684 5683 5682 5681 5681 5679 5678 5676 5672 5668 5666 5665 5664 5662 5659 5657 5655 5654 5656 5654 5652 5652 5651 5652 5651 5649 5647 5645 5643 5640 5638 5635 5633 5631 5628
5681 5680 5678 5677 5677 5676 5674 5672 5671 5671 5670 5668 5666 5664 5663 5662 5659 5656 5653 5651 5650 5650 5648 5644 5645 5644 5646 5644 5642 5640 5638 5635 5633 5630 5628 5626 5623 5621
5675 5674 5673 5672 5671 5670 5667 5665 5663 5662 5663 5662 5661 5659 5658 5656 5654 5650 5646 5643 5641 5642 5642 5638 5638 5637 5636 5635 5635 5632 5630 5627 5625 5622 5620 5618 5616 5613
5667 5667 5667 5666 5665 5663 5661 5658 5655 5654 5654 5653 5652 5652 5651 5649 5647 5644 5641 5636 5634 5633 5635 5632 5630 5628 5625 5626 5625 5623 5621 5619 5617 5614 5612 5610 5608 5605
5659 5659 5660 5659 5658 5657 5655 5653 5651 5649 5647 5645 5643 5642 5642 5641 5639 5638 5635 5632 5629 5628 5629 5626 5622 5619 5616 5615 5615 5615 5614 5611 5609 5607 5605 5603 5601 5598
5653 5654 5653 5653 5651 5650 5649 5647 5645 5642 5639 5637 5635 5634 5633 5632 5632 5631 5630 5628 5626 5625 5624 5620 5616 5612 5608 5606 5606 5607 5606 5604 5602 5600 5598 5596 5594 5592
5648 5648 5647 5646 5645 5644 5642 5640 5638 5634 5631 5628 5626 5626 5626 5626 5625 5625 5623 5621 5620 5618 5617 5615 5611 5607 5603 5600 5599 5598 5597 5596 5595 5593 5591 5589 5587 5585
5640 5640 5639 5638 5637 5636 5634 5631 5629 5627 5625 5622 5620 5619 5619 5618 5617 5616 5614 5612 5609 5609 5609 5607 5605 5602 5598 5596 5593 5591 5589 5588 5588 5586 5584 5582 5581 5579
5631 5630 5628 5627 5626 5625 5624 5622 5621 5620 5617 5615 5613 5611 5610 5609 5608 5607 5605 5603 5600 5598 5598 5598 5597 5595 5592 5589 5586 5585 5583 5581 5581 5579 5577 5575 5575 5574
5622 5621 5620 5618 5618 5617 5615 5614 5613 5612 5611 5608 5606 5604 5602 5601 5600 5598 5597 5594 5592 5591 5589 5588 5586 5584 5582 5582 5581 5578 5576 5575 5574 5573 5570 5568 5568 5569
5614 5613 5612 5611 5610 5610 5609 5608 5607 5606 5604 5601 5599 5597 5595 5594 5592 5590 5588 5586 5584 5583 5582 5580 5577 5574 5571 5571 5573 5573 5569 5568 5567 5565 5564 5562 5561 5562
5605 5605 5605 5604 5603 5603 5602 5601 5600 5598 5596 5593 5591 5589 5588 5586 5585 5583 5581 5579 5577 5575 5574 5572 5570 5568 5566 5565 5565 5565 5565 5562 5559 5558 5557 5556 5555 5556
5599 5598 5598 5598 5597 5596 5595 5594 5592 5591 5589 5586 5584 5582 5580 5578 5576 5575 5573 5572 5570 5568 5566 5565 5566 5565 5562 5560 5557 5557 5557 5557 5555 5552 5551 5549 5548 5547
5592 5591 5591 5591 5590 5589 5588 5586 5585 5583 5581 5579 5577 5575 5574 5572 5570 5568 5566 5564 5563 5561 5561 5560 5559 5557 5554 5551 5550 5549 5549 5549 5548 5547 5546 5545 5542 5540
5584 5584 5584 5584 5583 5582 5581 5579 5578 5576 5574 5572 5570 5568 5567 5565 5563 5561 5559 5558 5556 5555 5553 5552 5550 5548 5546 5544 5543 5542 5542 5541 5539 5539 5538 5539 5538 5538